Content
SEND FEEDBACK

Daily
Averages
Monthly
Summary
United States of America

VIRDEN, NEW MEXICO


Home > North America > United States > New Mexico
Elevation: 3760 feet     Latitude: 32 41N     Longitude: 109 00W

WEATHER
 
SELECT A DAY
Number of Records: 64,426;   Date Range: 2/15/12 - 10/22/14
 
SHARE

PRINT THIS DATA

[ ← Previous Day ]
WEATHER ALMANAC - JANUARY 23, 2013
[ Next Day → ]
[ °C ]   °F
Weather ElementAverageHighLow
Temperature48.1 °F71.6 °F (4:15 pm)24.8 °F (6:35 am)
Dewpoint17.2 °F26.6 °F (2:15 pm)5 °F (1:55 am)
Humidity31.5 %47 % (4:55 am)17 % (12:15 pm)
Barometer30.29 in30.37 in (9:55 am)30.24 in (3:55 pm)
Wind Speed4.6 mph10.4 mph (11:55 am)
Weather ElementAverage
Visibility10 mi
Wind DirectionESE (116.8 °)

Weather ElementTotal
Precipitation---
Heating Degree Days16.8 (Base 65)
Averaged from 71 records on January 23, 2013
WEATHER CONDITIONS BREAKOUT
WIND DIRECTION BREAKOUT
WEATHER BY HOUR - JANUARY 23, 2013
[ °C ]   °F
Local TimeTemperatureDewpointHumidityBarometerVisibilityWind DirectionWind SpeedGust SpeedPrecipitationEventsConditions
12:35 AM32.0 °F8.6 °F38 %30.28 in10.0 miSSE (150°)4.6 mphClear
12:55 AM32.0 °F8.6 °F38 %30.28 in10.0 miSSE (160°)3.5 mphClear
1:15 AM32.0 °F8.6 °F38 %30.28 in10.0 miSSE (150°)3.5 mphClear
1:35 AM30.2 °F6.8 °F37 %30.28 in10.0 miESE (120°)3.5 mphClear
1:55 AM30.2 °F5.0 °F34 %30.29 in10.0 miCalmClear
2:15 AM32.0 °F12.2 °F44 %30.29 in10.0 miSouth (190°)3.5 mphClear
2:35 AM33.8 °F12.2 °F41 %30.29 in10.0 miCalmClear
2:55 AM30.2 °F6.8 °F37 %30.29 in10.0 miEast (80°)3.5 mphClear
3:15 AM30.2 °F10.4 °F44 %30.29 in10.0 miSE (130°)4.6 mphClear
3:35 AM32.0 °F10.4 °F41 %30.30 in10.0 miSSE (150°)3.5 mphClear
3:55 AM32.0 °F12.2 °F44 %30.30 in10.0 miSSE (150°)3.5 mphClear
4:15 AM32.0 °F12.2 °F44 %30.30 in10.0 miCalmClear
4:35 AM30.2 °F10.4 °F44 %30.30 in10.0 miSE (130°)5.8 mphClear
4:55 AM28.4 °F10.4 °F47 %30.30 in10.0 miSSE (160°)3.5 mphClear
5:15 AM28.4 °F10.4 °F47 %30.30 in10.0 miCalmClear
5:35 AM30.2 °F10.4 °F44 %30.30 in10.0 miCalmClear
5:55 AM30.2 °F10.4 °F44 %30.31 in10.0 miNNW (330°)3.5 mphClear
6:15 AM26.6 °F5.0 °F40 %30.32 in10.0 miCalmClear
6:35 AM24.8 °F5.0 °F43 %30.32 in10.0 miCalmClear
6:55 AM28.4 °F10.4 °F47 %30.32 in10.0 miSSE (160°)3.5 mphClear
7:15 AM28.4 °F10.4 °F47 %30.33 in10.0 miSE (140°)4.6 mphClear
7:35 AM30.2 °F10.4 °F44 %30.33 in10.0 miSE (140°)4.6 mphClear
7:55 AM30.2 °F10.4 °F44 %30.33 in10.0 miCalmClear
8:15 AM32.0 °F12.2 °F44 %30.34 in10.0 miCalmClear
8:35 AM37.4 °F14.0 °F38 %30.35 in10.0 miESE (120°)4.6 mphClear
8:55 AM39.2 °F14.0 °F36 %30.36 in10.0 miSE (130°)5.8 mphClear
9:15 AM42.8 °F15.8 °F34 %30.36 in10.0 miSE (140°)3.5 mphClear
9:35 AM50.0 °F19.4 °F30 %30.36 in10.0 miESE (120°)4.6 mphClear
9:55 AM51.8 °F19.4 °F28 %30.37 in10.0 miSSE (150°)5.8 mphClear
10:15 AM55.4 °F19.4 °F25 %30.37 in10.0 miESE (120°)6.9 mphClear
10:35 AM55.4 °F19.4 °F25 %30.37 in10.0 miESE (120°)5.8 mphClear
10:55 AM59.0 °F19.4 °F22 %30.36 in10.0 miSE (140°)8.1 mphClear
11:15 AM62.6 °F19.4 °F19 %30.36 in10.0 miSE (140°)9.2 mphClear
11:35 AM64.4 °F19.4 °F18 %30.35 in10.0 miSE (140°)9.2 mphClear
11:55 AM64.4 °F19.4 °F18 %30.34 in10.0 miSSE (150°)10.4 mphClear
12:15 PM68.0 °F21.2 °F17 %30.32 in10.0 miSSE (150°)10.4 mphClear
12:35 PM68.0 °F21.2 °F17 %30.32 in10.0 miSSE (150°)6.9 mphClear
12:55 PM68.0 °F21.2 °F17 %30.30 in10.0 miSE (140°)10.4 mphClear
1:15 PM69.8 °F23.0 °F17 %30.29 in10.0 miSSE (150°)6.9 mphClear
1:35 PM69.8 °F24.8 °F18 %30.28 in10.0 miSE (140°)6.9 mphClear
1:55 PM69.8 °F24.8 °F18 %30.27 in10.0 miSSE (160°)5.8 mphClear
2:15 PM69.8 °F26.6 °F20 %30.26 in10.0 miSSE (150°)8.1 mphClear
2:35 PM69.8 °F26.6 °F20 %30.25 in10.0 miSE (140°)5.8 mphClear
2:55 PM69.8 °F26.6 °F20 %30.25 in10.0 miSSE (150°)6.9 mphClear
3:15 PM69.8 °F26.6 °F20 %30.25 in10.0 miSSE (150°)5.8 mphClear
3:35 PM69.8 °F24.8 °F18 %30.25 in10.0 miSE (130°)5.8 mphClear
3:55 PM69.8 °F24.8 °F18 %30.24 in10.0 miNorthClear
4:15 PM71.6 °F26.6 °F19 %30.24 in10.0 miNorthClear
4:35 PM69.8 °F24.8 °F18 %30.24 in10.0 miCalmClear
4:55 PM68.0 °F24.8 °F20 %30.24 in10.0 miCalmClear
5:15 PM68.0 °F23.0 °F18 %30.25 in10.0 miCalmClear
5:35 PM64.4 °F23.0 °F21 %30.25 in10.0 miCalmClear
5:55 PM62.6 °F23.0 °F22 %30.25 in10.0 miESE (110°)3.5 mphClear
6:15 PM59.0 °F21.2 °F23 %30.25 in10.0 miSE (130°)5.8 mphClear
6:35 PM55.4 °F21.2 °F26 %30.25 in10.0 miSouth (180°)4.6 mphClear
6:55 PM55.4 °F21.2 °F26 %30.26 in10.0 miSouth (180°)5.8 mphClear
7:15 PM53.6 °F21.2 °F28 %30.26 in10.0 miSouth (170°)4.6 mphClear
7:35 PM51.8 °F21.2 °F30 %30.26 in10.0 miSSE (150°)5.8 mphClear
7:55 PM51.8 °F21.2 °F30 %30.27 in10.0 miSouth (170°)5.8 mphClear
8:15 PM51.8 °F21.2 °F30 %30.28 in10.0 miSouth (170°)5.8 mphClear
8:35 PM50.0 °F21.2 °F32 %30.28 in10.0 miSouth (170°)5.8 mphClear
8:55 PM50.0 °F21.2 °F32 %30.27 in10.0 miSSE (160°)6.9 mphClear
9:15 PM48.2 °F19.4 °F32 %30.28 in10.0 miSSE (160°)5.8 mphClear
9:35 PM46.4 °F19.4 °F34 %30.28 in10.0 miSouth (170°)8.1 mphClear
9:55 PM46.4 °F19.4 °F34 %30.28 in10.0 miSouth (180°)8.1 mphClear
10:15 PM46.4 °F19.4 °F34 %30.29 in10.0 miSouth (180°)6.9 mphClear
10:35 PM46.4 °F21.2 °F37 %30.29 in10.0 miSouth (180°)5.8 mphClear
10:55 PM41.0 °F17.6 °F39 %30.30 in10.0 miCalmClear
11:15 PM37.4 °F15.8 °F41 %30.29 in10.0 miSE (130°)5.8 mphClear
11:35 PM37.4 °F15.8 °F41 %30.29 in10.0 miSE (140°)5.8 mphClear
11:55 PM39.2 °F17.6 °F42 %30.28 in10.0 miSE (140°)5.8 mphClear
Hourly data recorded from KLSB, located miles away from Virden, New Mexico







STORIES FROM OUR PARTNERS